Year,Month,Day,Hour,Minute,Value (Times are PST for temperature in C)
2017,06,25,00,00,16.90
2017,06,25,00,01,16.90
2017,06,25,00,02,16.90
2017,06,25,00,03,16.80
2017,06,25,00,04,16.80
2017,06,25,00,05,16.80
2017,06,25,00,06,16.80
2017,06,25,00,07,16.80
2017,06,25,00,08,16.80
2017,06,25,00,09,16.80
2017,06,25,00,10,16.80
2017,06,25,00,11,16.80
2017,06,25,00,12,16.80
2017,06,25,00,13,16.80
2017,06,25,00,14,16.80
2017,06,25,00,15,16.80
2017,06,25,00,16,16.80
2017,06,25,00,17,16.80
2017,06,25,00,18,16.80
2017,06,25,00,19,16.80
2017,06,25,00,20,16.80
2017,06,25,00,21,16.80
2017,06,25,00,22,16.80
2017,06,25,00,23,16.90
2017,06,25,00,24,16.90
2017,06,25,00,25,16.90
2017,06,25,00,26,16.90
2017,06,25,00,27,16.90
2017,06,25,00,28,16.90
2017,06,25,00,29,16.90
2017,06,25,00,30,16.90
2017,06,25,00,31,16.90
2017,06,25,00,32,16.90
2017,06,25,00,33,16.80
2017,06,25,00,34,16.80
2017,06,25,00,35,16.80
2017,06,25,00,36,16.80
2017,06,25,00,37,16.80
2017,06,25,00,38,16.80
2017,06,25,00,39,16.80
2017,06,25,00,40,16.70
2017,06,25,00,41,16.70
2017,06,25,00,42,16.70
2017,06,25,00,43,16.70
2017,06,25,00,44,16.70
2017,06,25,00,45,16.70
2017,06,25,00,46,16.70
2017,06,25,00,47,16.60
2017,06,25,00,48,16.60
2017,06,25,00,49,16.60
2017,06,25,00,50,16.60
2017,06,25,00,51,16.60
2017,06,25,00,52,16.60
2017,06,25,00,53,16.50
2017,06,25,00,54,16.40
2017,06,25,00,55,16.40
2017,06,25,00,56,16.40
2017,06,25,00,57,16.40
2017,06,25,00,58,16.40
2017,06,25,00,59,16.30
2017,06,25,01,00,16.30
2017,06,25,01,01,16.30
2017,06,25,01,02,16.20
2017,06,25,01,03,16.20
2017,06,25,01,04,16.10
2017,06,25,01,05,16.10
2017,06,25,01,06,16.10
2017,06,25,01,07,16.10
2017,06,25,01,08,16.00
2017,06,25,01,09,15.90
2017,06,25,01,10,15.90
2017,06,25,01,11,15.90
2017,06,25,01,12,15.80
2017,06,25,01,13,15.80
2017,06,25,01,14,15.80
2017,06,25,01,15,15.80
2017,06,25,01,16,15.80
2017,06,25,01,17,15.80
2017,06,25,01,18,15.70
2017,06,25,01,19,15.70
2017,06,25,01,20,15.70
2017,06,25,01,21,15.70
2017,06,25,01,22,15.60
2017,06,25,01,23,15.60
2017,06,25,01,24,15.60
2017,06,25,01,25,15.60
2017,06,25,01,26,15.60
2017,06,25,01,27,15.50
2017,06,25,01,28,15.50
2017,06,25,01,29,15.50
2017,06,25,01,30,15.50
2017,06,25,01,31,15.50
2017,06,25,01,32,15.40
2017,06,25,01,33,15.50
2017,06,25,01,34,15.50
2017,06,25,01,35,15.50
2017,06,25,01,36,15.50
2017,06,25,01,37,15.50
2017,06,25,01,38,15.50
2017,06,25,01,39,15.50
2017,06,25,01,40,15.50
2017,06,25,01,41,15.50
2017,06,25,01,42,15.50
2017,06,25,01,43,15.50
2017,06,25,01,44,15.50
2017,06,25,01,45,15.40
2017,06,25,01,46,15.40
2017,06,25,01,47,15.40
2017,06,25,01,48,15.40
2017,06,25,01,49,15.40
2017,06,25,01,50,15.50
2017,06,25,01,51,15.50
2017,06,25,01,52,15.50
2017,06,25,01,53,15.50
2017,06,25,01,54,15.50
2017,06,25,01,55,15.50
2017,06,25,01,56,15.50
2017,06,25,01,57,15.50
2017,06,25,01,58,15.50
2017,06,25,01,59,15.50
2017,06,25,02,00,15.50
2017,06,25,02,01,15.50
2017,06,25,02,02,15.50
2017,06,25,02,03,15.50
2017,06,25,02,04,15.50
2017,06,25,02,05,15.50
2017,06,25,02,06,15.50
2017,06,25,02,07,15.60
2017,06,25,02,08,15.60
2017,06,25,02,09,15.60
2017,06,25,02,10,15.60
2017,06,25,02,11,15.60
2017,06,25,02,12,15.60
2017,06,25,02,13,15.50
2017,06,25,02,14,15.50
2017,06,25,02,15,15.50
2017,06,25,02,16,15.50
2017,06,25,02,17,15.50
2017,06,25,02,18,15.50
2017,06,25,02,19,15.50
2017,06,25,02,20,15.50
2017,06,25,02,21,15.60
2017,06,25,02,22,15.60
2017,06,25,02,23,15.60
2017,06,25,02,24,15.70
2017,06,25,02,25,15.70
2017,06,25,02,26,15.70
2017,06,25,02,27,15.70
2017,06,25,02,28,15.70
2017,06,25,02,29,15.80
2017,06,25,02,30,15.80
2017,06,25,02,31,15.80
2017,06,25,02,32,15.80
2017,06,25,02,33,15.70
2017,06,25,02,34,15.70
2017,06,25,02,35,15.60
2017,06,25,02,36,15.60
2017,06,25,02,37,15.50
2017,06,25,02,38,15.50
2017,06,25,02,39,15.50
2017,06,25,02,40,15.40
2017,06,25,02,41,15.40
2017,06,25,02,42,15.40
2017,06,25,02,43,15.40
2017,06,25,02,44,15.30
2017,06,25,02,45,15.30
2017,06,25,02,46,15.30
2017,06,25,02,47,15.30
2017,06,25,02,48,15.30
2017,06,25,02,49,15.30
2017,06,25,02,50,15.20
2017,06,25,02,51,15.20
2017,06,25,02,52,15.10
2017,06,25,02,53,15.10
2017,06,25,02,54,15.00
2017,06,25,02,55,15.00
2017,06,25,02,56,14.90
2017,06,25,02,57,14.90
2017,06,25,02,58,14.80
2017,06,25,02,59,14.80
2017,06,25,03,00,14.80
2017,06,25,03,01,14.80
2017,06,25,03,02,14.90
2017,06,25,03,03,14.90
2017,06,25,03,04,14.90
2017,06,25,03,05,14.90
2017,06,25,03,06,14.90
2017,06,25,03,07,14.90
2017,06,25,03,08,14.90
2017,06,25,03,09,14.90
2017,06,25,03,10,14.90
2017,06,25,03,11,14.90
2017,06,25,03,12,14.90
2017,06,25,03,13,14.90
2017,06,25,03,14,14.90
2017,06,25,03,15,14.90
2017,06,25,03,16,15.00
2017,06,25,03,17,15.00
2017,06,25,03,18,15.00
2017,06,25,03,19,15.00
2017,06,25,03,20,15.00
2017,06,25,03,21,15.00
2017,06,25,03,22,15.00
2017,06,25,03,23,15.00
2017,06,25,03,24,15.00
2017,06,25,03,25,15.00
2017,06,25,03,26,15.00
2017,06,25,03,27,15.00
2017,06,25,03,28,15.00
2017,06,25,03,29,14.90
2017,06,25,03,30,14.90
2017,06,25,03,31,14.90
2017,06,25,03,32,14.90
2017,06,25,03,33,14.90
2017,06,25,03,34,14.90
2017,06,25,03,35,14.80
2017,06,25,03,36,14.80
2017,06,25,03,37,14.80
2017,06,25,03,38,14.80
2017,06,25,03,39,14.70
2017,06,25,03,40,14.70
2017,06,25,03,41,14.60
2017,06,25,03,42,14.60
2017,06,25,03,43,14.60
2017,06,25,03,44,14.50
2017,06,25,03,45,14.50
2017,06,25,03,46,14.50
2017,06,25,03,47,14.50
2017,06,25,03,48,14.50
2017,06,25,03,49,14.50
2017,06,25,03,50,14.50
2017,06,25,03,51,14.50
2017,06,25,03,52,14.50
2017,06,25,03,53,14.60
2017,06,25,03,54,14.60
2017,06,25,03,55,14.60
2017,06,25,03,56,14.70
2017,06,25,03,57,14.70
2017,06,25,03,58,14.70
2017,06,25,03,59,14.70
2017,06,25,04,00,14.70
2017,06,25,04,01,14.60
2017,06,25,04,02,14.60
2017,06,25,04,03,14.60
2017,06,25,04,04,14.50
2017,06,25,04,05,14.50
2017,06,25,04,06,14.50
2017,06,25,04,07,14.50
2017,06,25,04,08,14.50
2017,06,25,04,09,14.50
2017,06,25,04,10,14.50
2017,06,25,04,11,14.50
2017,06,25,04,12,14.50
2017,06,25,04,13,14.50
2017,06,25,04,14,14.60
2017,06,25,04,15,14.60
2017,06,25,04,16,14.60
2017,06,25,04,17,14.60
2017,06,25,04,18,14.70
2017,06,25,04,19,14.70
2017,06,25,04,20,14.70
2017,06,25,04,21,14.80
2017,06,25,04,22,14.80
2017,06,25,04,23,14.80
2017,06,25,04,24,14.90
2017,06,25,04,25,15.00
2017,06,25,04,26,15.10
2017,06,25,04,27,15.20
2017,06,25,04,28,15.20
2017,06,25,04,29,15.30
2017,06,25,04,30,15.30
2017,06,25,04,31,15.30
2017,06,25,04,32,15.40
2017,06,25,04,33,15.40
2017,06,25,04,34,15.50
2017,06,25,04,35,15.50
2017,06,25,04,36,15.50
2017,06,25,04,37,15.60
2017,06,25,04,38,15.60
2017,06,25,04,39,15.60
2017,06,25,04,40,15.70
2017,06,25,04,41,15.70
2017,06,25,04,42,15.70
2017,06,25,04,43,15.80
2017,06,25,04,44,15.80
2017,06,25,04,45,15.80
2017,06,25,04,46,15.80
2017,06,25,04,47,15.80
2017,06,25,04,48,15.80
2017,06,25,04,49,15.80
2017,06,25,04,50,15.90
2017,06,25,04,51,15.90
2017,06,25,04,52,15.90
2017,06,25,04,53,16.00
2017,06,25,04,54,16.10
2017,06,25,04,55,16.10
2017,06,25,04,56,16.10
2017,06,25,04,57,16.20
2017,06,25,04,58,16.30
2017,06,25,04,59,16.30
2017,06,25,05,00,16.40
2017,06,25,05,01,16.50
2017,06,25,05,02,16.60
2017,06,25,05,03,16.70
2017,06,25,05,04,16.80
2017,06,25,05,05,16.80
2017,06,25,05,06,16.80
2017,06,25,05,07,16.80
2017,06,25,05,08,16.80
2017,06,25,05,09,16.70
2017,06,25,05,10,16.60
2017,06,25,05,11,16.50
2017,06,25,05,12,16.40
2017,06,25,05,13,16.40
2017,06,25,05,14,16.30
2017,06,25,05,15,16.30
2017,06,25,05,16,16.20
2017,06,25,05,17,16.20
2017,06,25,05,18,16.10
2017,06,25,05,19,16.10
2017,06,25,05,20,16.10
2017,06,25,05,21,16.10
2017,06,25,05,22,16.10
2017,06,25,05,23,16.10
2017,06,25,05,24,16.00
2017,06,25,05,25,15.90
2017,06,25,05,26,15.90
2017,06,25,05,27,15.80
2017,06,25,05,28,15.80
2017,06,25,05,29,15.80
2017,06,25,05,30,15.80
2017,06,25,05,31,15.70
2017,06,25,05,32,15.70
2017,06,25,05,33,15.70
2017,06,25,05,34,15.60
2017,06,25,05,35,15.60
2017,06,25,05,36,15.60
2017,06,25,05,37,15.60
2017,06,25,05,38,15.60
2017,06,25,05,39,15.50
2017,06,25,05,40,15.50
2017,06,25,05,41,15.50
2017,06,25,05,42,15.50
2017,06,25,05,43,15.50
2017,06,25,05,44,15.50
2017,06,25,05,45,15.50
2017,06,25,05,46,15.50
2017,06,25,05,47,15.50
2017,06,25,05,48,15.50
2017,06,25,05,49,15.50
2017,06,25,05,50,15.50
2017,06,25,05,51,15.60
2017,06,25,05,52,15.60
2017,06,25,05,53,15.60
2017,06,25,05,54,15.70
2017,06,25,05,55,15.80
2017,06,25,05,56,15.80
2017,06,25,05,57,15.80
2017,06,25,05,58,15.90
2017,06,25,05,59,15.90
2017,06,25,06,00,15.90
2017,06,25,06,01,16.00
2017,06,25,06,02,16.10
2017,06,25,06,03,16.10
2017,06,25,06,04,16.10
2017,06,25,06,05,16.10
2017,06,25,06,06,16.10
2017,06,25,06,07,16.10
2017,06,25,06,08,16.10
2017,06,25,06,09,16.10
2017,06,25,06,10,16.10
2017,06,25,06,11,16.10
2017,06,25,06,12,16.10
2017,06,25,06,13,16.10
2017,06,25,06,14,16.20
2017,06,25,06,15,16.20
2017,06,25,06,16,16.20
2017,06,25,06,17,16.10
2017,06,25,06,18,16.10
2017,06,25,06,19,16.10
2017,06,25,06,20,16.10
2017,06,25,06,21,16.10
2017,06,25,06,22,16.10
2017,06,25,06,23,16.20
2017,06,25,06,24,16.20
2017,06,25,06,25,16.30
2017,06,25,06,26,16.30
2017,06,25,06,27,16.30
2017,06,25,06,28,16.40
2017,06,25,06,29,16.40
2017,06,25,06,30,16.40
2017,06,25,06,31,16.50
2017,06,25,06,32,16.60
2017,06,25,06,33,16.60
2017,06,25,06,34,16.70
2017,06,25,06,35,16.70
2017,06,25,06,36,16.80
2017,06,25,06,37,16.90
2017,06,25,06,38,16.90
2017,06,25,06,39,17.00
2017,06,25,06,40,17.00
2017,06,25,06,41,17.10
2017,06,25,06,42,17.20
2017,06,25,06,43,17.30
2017,06,25,06,44,17.30
2017,06,25,06,45,17.30
2017,06,25,06,46,17.30
2017,06,25,06,47,17.40
2017,06,25,06,48,17.40
2017,06,25,06,49,17.40
2017,06,25,06,50,17.40
2017,06,25,06,51,17.40
2017,06,25,06,52,17.40
2017,06,25,06,53,17.40
2017,06,25,06,54,17.50
2017,06,25,06,55,17.50
2017,06,25,06,56,17.60
2017,06,25,06,57,17.60
2017,06,25,06,58,17.70
2017,06,25,06,59,17.70
2017,06,25,07,00,17.70
2017,06,25,07,01,17.80
2017,06,25,07,02,17.80
2017,06,25,07,03,17.80
2017,06,25,07,04,17.90
2017,06,25,07,05,17.90
2017,06,25,07,06,17.90
2017,06,25,07,07,18.00
2017,06,25,07,08,18.10
2017,06,25,07,09,18.20
2017,06,25,07,10,18.20
2017,06,25,07,11,18.30
2017,06,25,07,12,18.40
2017,06,25,07,13,18.40
2017,06,25,07,14,18.50
2017,06,25,07,15,18.50
2017,06,25,07,16,18.60
2017,06,25,07,17,18.60
2017,06,25,07,18,18.60
2017,06,25,07,19,18.70
2017,06,25,07,20,18.70
2017,06,25,07,21,18.70
2017,06,25,07,22,18.70
2017,06,25,07,23,18.70
2017,06,25,07,24,18.70
2017,06,25,07,25,18.70
2017,06,25,07,26,18.70
2017,06,25,07,27,18.70
2017,06,25,07,28,18.70
2017,06,25,07,29,18.80
2017,06,25,07,30,18.80
2017,06,25,07,31,18.90
2017,06,25,07,32,18.90
2017,06,25,07,33,18.90
2017,06,25,07,34,18.90
2017,06,25,07,35,19.00
2017,06,25,07,36,19.10
2017,06,25,07,37,19.10
2017,06,25,07,38,19.10
2017,06,25,07,39,19.10
2017,06,25,07,40,19.10
2017,06,25,07,41,19.20
2017,06,25,07,42,19.20
2017,06,25,07,43,19.20
2017,06,25,07,44,19.20
2017,06,25,07,45,19.20
2017,06,25,07,46,19.20
2017,06,25,07,47,19.30
2017,06,25,07,48,19.30
2017,06,25,07,49,19.30
2017,06,25,07,50,19.30
2017,06,25,07,51,19.30
2017,06,25,07,52,19.30
2017,06,25,07,53,19.40
2017,06,25,07,54,19.40
2017,06,25,07,55,19.40
2017,06,25,07,56,19.50
2017,06,25,07,57,19.50
2017,06,25,07,58,19.50
2017,06,25,07,59,19.50
2017,06,25,08,00,19.50
2017,06,25,08,01,19.50
2017,06,25,08,02,19.50
2017,06,25,08,03,19.50
2017,06,25,08,04,19.50
2017,06,25,08,05,19.50
2017,06,25,08,06,19.50
2017,06,25,08,07,19.50
2017,06,25,08,08,19.50
2017,06,25,08,09,19.50
2017,06,25,08,10,19.50
2017,06,25,08,11,19.50
2017,06,25,08,12,19.60
2017,06,25,08,13,19.60
2017,06,25,08,14,19.60
2017,06,25,08,15,19.70
2017,06,25,08,16,19.70
2017,06,25,08,17,19.70
2017,06,25,08,18,19.80
2017,06,25,08,19,19.90
2017,06,25,08,20,19.90
2017,06,25,08,21,20.00
2017,06,25,08,22,20.10
2017,06,25,08,23,20.20
2017,06,25,08,24,20.20
2017,06,25,08,25,20.30
2017,06,25,08,26,20.50
2017,06,25,08,27,20.50
2017,06,25,08,28,20.60
2017,06,25,08,29,20.70
2017,06,25,08,30,20.80
2017,06,25,08,31,20.80
2017,06,25,08,32,20.90
2017,06,25,08,33,21.00
2017,06,25,08,34,21.10
2017,06,25,08,35,21.20
2017,06,25,08,36,21.30
2017,06,25,08,37,21.40
2017,06,25,08,38,21.50
2017,06,25,08,39,21.60
2017,06,25,08,40,21.70
2017,06,25,08,41,21.80
2017,06,25,08,42,21.90
2017,06,25,08,43,22.00
2017,06,25,08,44,22.10
2017,06,25,08,45,22.20
2017,06,25,08,46,22.30
2017,06,25,08,47,22.40
2017,06,25,08,48,22.50
2017,06,25,08,49,22.60
2017,06,25,08,50,22.70
2017,06,25,08,51,22.80
2017,06,25,08,52,22.80
2017,06,25,08,53,22.90
2017,06,25,08,54,22.90
2017,06,25,08,55,22.90
2017,06,25,08,56,23.00
2017,06,25,08,57,23.10
2017,06,25,08,58,23.10
2017,06,25,08,59,23.10
2017,06,25,09,00,23.20
2017,06,25,09,01,23.20
2017,06,25,09,02,23.20
2017,06,25,09,03,23.30
2017,06,25,09,04,23.30
2017,06,25,09,05,23.30
2017,06,25,09,06,23.30
2017,06,25,09,07,23.40
2017,06,25,09,08,23.50
2017,06,25,09,09,23.60
2017,06,25,09,10,23.60
2017,06,25,09,11,23.70
2017,06,25,09,12,23.80
2017,06,25,09,13,23.90
2017,06,25,09,14,24.00
2017,06,25,09,15,24.10
2017,06,25,09,16,24.30
2017,06,25,09,17,24.40
2017,06,25,09,18,24.50
2017,06,25,09,19,24.50
2017,06,25,09,20,24.60
2017,06,25,09,21,24.70
2017,06,25,09,22,24.80
2017,06,25,09,23,24.90
2017,06,25,09,24,25.00
2017,06,25,09,25,25.00
2017,06,25,09,26,25.10
2017,06,25,09,27,25.00
2017,06,25,09,28,25.00
2017,06,25,09,29,25.00
2017,06,25,09,30,25.00
2017,06,25,09,31,25.10
2017,06,25,09,32,25.20
2017,06,25,09,33,25.30
2017,06,25,09,34,25.40
2017,06,25,09,35,25.40
2017,06,25,09,36,25.50
2017,06,25,09,37,25.60
2017,06,25,09,38,25.70
2017,06,25,09,39,25.70
2017,06,25,09,40,25.70
2017,06,25,09,41,25.60
2017,06,25,09,42,25.60
2017,06,25,09,43,25.60
2017,06,25,09,44,25.60
2017,06,25,09,45,25.60
2017,06,25,09,46,25.70
2017,06,25,09,47,25.70
2017,06,25,09,48,25.80
2017,06,25,09,49,25.80
2017,06,25,09,50,25.80
2017,06,25,09,51,25.80
2017,06,25,09,52,25.80
2017,06,25,09,53,25.80
2017,06,25,09,54,25.70
2017,06,25,09,55,25.70
2017,06,25,09,56,25.70
2017,06,25,09,57,25.70
2017,06,25,09,58,25.60
2017,06,25,09,59,25.50
2017,06,25,10,00,25.40
2017,06,25,10,01,25.30
2017,06,25,10,02,25.30
2017,06,25,10,03,25.30
2017,06,25,10,04,25.30
2017,06,25,10,05,25.30
2017,06,25,10,06,25.30
2017,06,25,10,07,25.20
2017,06,25,10,08,25.20
2017,06,25,10,09,25.20
2017,06,25,10,10,25.20
2017,06,25,10,11,25.10
2017,06,25,10,12,25.10
2017,06,25,10,13,25.10
2017,06,25,10,14,25.00
2017,06,25,10,15,25.00
2017,06,25,10,16,24.90
2017,06,25,10,17,24.90
2017,06,25,10,18,24.90
2017,06,25,10,19,24.90
2017,06,25,10,20,24.90
2017,06,25,10,21,24.80
2017,06,25,10,22,24.80
2017,06,25,10,23,24.80
2017,06,25,10,24,24.80
2017,06,25,10,25,24.80
2017,06,25,10,26,24.80
2017,06,25,10,27,24.80
2017,06,25,10,28,24.80
2017,06,25,10,29,24.80
2017,06,25,10,30,24.80
2017,06,25,10,31,24.80
2017,06,25,10,32,24.70
2017,06,25,10,33,24.70
2017,06,25,10,34,24.70
2017,06,25,10,35,24.70
2017,06,25,10,36,24.70
2017,06,25,10,37,24.80
2017,06,25,10,38,24.90
2017,06,25,10,39,24.90
2017,06,25,10,40,25.00
2017,06,25,10,41,25.00
2017,06,25,10,42,25.00
2017,06,25,10,43,25.00
2017,06,25,10,44,25.10
2017,06,25,10,45,25.10
2017,06,25,10,46,25.10
2017,06,25,10,47,25.10
2017,06,25,10,48,25.00
2017,06,25,10,49,25.00
2017,06,25,10,50,24.90
2017,06,25,10,51,24.90
2017,06,25,10,52,24.80
2017,06,25,10,53,24.70
2017,06,25,10,54,24.70
2017,06,25,10,55,24.70
2017,06,25,10,56,24.60
2017,06,25,10,57,24.60
2017,06,25,10,58,24.60
2017,06,25,10,59,24.60
2017,06,25,11,00,24.60
2017,06,25,11,01,24.60
2017,06,25,11,02,24.60
2017,06,25,11,03,24.70
2017,06,25,11,04,24.70
2017,06,25,11,05,24.70
2017,06,25,11,06,24.70
2017,06,25,11,07,24.70
2017,06,25,11,08,24.70
2017,06,25,11,09,24.80
2017,06,25,11,10,24.80
2017,06,25,11,11,24.90
2017,06,25,11,12,25.00
2017,06,25,11,13,25.00
2017,06,25,11,14,25.10
2017,06,25,11,15,25.10
2017,06,25,11,16,25.10
2017,06,25,11,17,25.10
2017,06,25,11,18,25.20
2017,06,25,11,19,25.20
2017,06,25,11,20,25.20
2017,06,25,11,21,25.20
2017,06,25,11,22,25.20
2017,06,25,11,23,25.20
2017,06,25,11,24,25.20
2017,06,25,11,25,25.20
2017,06,25,11,26,25.20
2017,06,25,11,27,25.20
2017,06,25,11,28,25.20
2017,06,25,11,29,25.30
2017,06,25,11,30,25.30
2017,06,25,11,31,25.30
2017,06,25,11,32,25.40
2017,06,25,11,33,25.40
2017,06,25,11,34,25.40
2017,06,25,11,35,25.50
2017,06,25,11,36,25.50
2017,06,25,11,37,25.60
2017,06,25,11,38,25.60
2017,06,25,11,39,25.60
2017,06,25,11,40,25.70
2017,06,25,11,41,25.70
2017,06,25,11,42,25.80
2017,06,25,11,43,25.80
2017,06,25,11,44,25.80
2017,06,25,11,45,25.80
2017,06,25,11,46,25.80
2017,06,25,11,47,25.70
2017,06,25,11,48,25.70
2017,06,25,11,49,25.70
2017,06,25,11,50,25.70
2017,06,25,11,51,25.80
2017,06,25,11,52,25.80
2017,06,25,11,53,25.90
2017,06,25,11,54,25.90
2017,06,25,11,55,25.90
2017,06,25,11,56,26.00
2017,06,25,11,57,26.00
2017,06,25,11,58,26.00
2017,06,25,11,59,26.00
2017,06,25,12,00,26.00
2017,06,25,12,01,26.10
2017,06,25,12,02,26.10
2017,06,25,12,03,26.10
2017,06,25,12,04,26.10
2017,06,25,12,05,26.10
2017,06,25,12,06,26.20
2017,06,25,12,07,26.20
2017,06,25,12,08,26.20
2017,06,25,12,09,26.10
2017,06,25,12,10,26.10
2017,06,25,12,11,26.20
2017,06,25,12,12,26.20
2017,06,25,12,13,26.20
2017,06,25,12,14,26.20
2017,06,25,12,15,26.20
2017,06,25,12,16,26.20
2017,06,25,12,17,26.20
2017,06,25,12,18,26.20
2017,06,25,12,19,26.20
2017,06,25,12,20,26.20
2017,06,25,12,21,26.10
2017,06,25,12,22,26.10
2017,06,25,12,23,26.20
2017,06,25,12,24,26.20
2017,06,25,12,25,26.20
2017,06,25,12,26,26.20
2017,06,25,12,27,26.20
2017,06,25,12,28,26.10
2017,06,25,12,29,26.20
2017,06,25,12,30,26.20
2017,06,25,12,31,26.30
2017,06,25,12,32,26.40
2017,06,25,12,33,26.50
2017,06,25,12,34,26.60
2017,06,25,12,35,26.60
2017,06,25,12,36,26.60
2017,06,25,12,37,26.60
2017,06,25,12,38,26.60
2017,06,25,12,39,26.60
2017,06,25,12,40,26.60
2017,06,25,12,41,26.60
2017,06,25,12,42,26.60
2017,06,25,12,43,26.60
2017,06,25,12,44,26.60
2017,06,25,12,45,26.60
2017,06,25,12,46,26.50
2017,06,25,12,47,26.40
2017,06,25,12,48,26.40
2017,06,25,12,49,26.40
2017,06,25,12,50,26.30
2017,06,25,12,51,26.30
2017,06,25,12,52,26.30
2017,06,25,12,53,26.30
2017,06,25,12,54,26.30
2017,06,25,12,55,26.40
2017,06,25,12,56,26.40
2017,06,25,12,57,26.30
2017,06,25,12,58,26.30
2017,06,25,12,59,26.30
2017,06,25,13,00,26.40
2017,06,25,13,01,26.40
2017,06,25,13,02,26.40
2017,06,25,13,03,26.40
2017,06,25,13,04,26.40
2017,06,25,13,05,26.40
2017,06,25,13,06,26.50
2017,06,25,13,07,26.60
2017,06,25,13,08,26.60
2017,06,25,13,09,26.60
2017,06,25,13,10,26.60
2017,06,25,13,11,26.70
2017,06,25,13,12,26.80
2017,06,25,13,13,26.80
2017,06,25,13,14,26.90
2017,06,25,13,15,27.10
2017,06,25,13,16,27.10
2017,06,25,13,17,27.20
2017,06,25,13,18,27.20
2017,06,25,13,19,27.20
2017,06,25,13,20,27.20
2017,06,25,13,21,27.20
2017,06,25,13,22,27.30
2017,06,25,13,23,27.30
2017,06,25,13,24,27.30
2017,06,25,13,25,27.30
2017,06,25,13,26,27.30
2017,06,25,13,27,27.30
2017,06,25,13,28,27.50
2017,06,25,13,29,27.60
2017,06,25,13,30,27.70
2017,06,25,13,31,27.80
2017,06,25,13,32,27.80
2017,06,25,13,33,27.90
2017,06,25,13,34,27.90
2017,06,25,13,35,27.90
2017,06,25,13,36,27.90
2017,06,25,13,37,27.80
2017,06,25,13,38,27.90
2017,06,25,13,39,27.90
2017,06,25,13,40,28.00
2017,06,25,13,41,28.10
2017,06,25,13,42,28.00
2017,06,25,13,43,28.00
2017,06,25,13,44,28.00
2017,06,25,13,45,27.90
2017,06,25,13,46,27.90
2017,06,25,13,47,27.90
2017,06,25,13,48,27.90
2017,06,25,13,49,27.90
2017,06,25,13,50,28.00
2017,06,25,13,51,28.00
2017,06,25,13,52,28.10
2017,06,25,13,53,28.10
2017,06,25,13,54,28.10
2017,06,25,13,55,28.20
2017,06,25,13,56,28.20
2017,06,25,13,57,28.20
2017,06,25,13,58,28.20
2017,06,25,13,59,28.20
2017,06,25,14,00,28.30
2017,06,25,14,01,28.30
2017,06,25,14,02,28.20
2017,06,25,14,03,28.30
2017,06,25,14,04,28.30
2017,06,25,14,05,28.30
2017,06,25,14,06,28.20
2017,06,25,14,07,28.20
2017,06,25,14,08,28.10
2017,06,25,14,09,28.00
2017,06,25,14,10,28.00
2017,06,25,14,11,28.00
2017,06,25,14,12,28.00
2017,06,25,14,13,28.00
2017,06,25,14,14,28.00
2017,06,25,14,15,27.90
2017,06,25,14,16,27.80
2017,06,25,14,17,27.70
2017,06,25,14,18,27.60
2017,06,25,14,19,27.60
2017,06,25,14,20,27.50
2017,06,25,14,21,27.40
2017,06,25,14,22,27.40
2017,06,25,14,23,27.30
2017,06,25,14,24,27.30
2017,06,25,14,25,27.30
2017,06,25,14,26,27.30
2017,06,25,14,27,27.30
2017,06,25,14,28,27.30
2017,06,25,14,29,27.20
2017,06,25,14,30,27.20
2017,06,25,14,31,27.10
2017,06,25,14,32,27.00
2017,06,25,14,33,26.90
2017,06,25,14,34,26.80
2017,06,25,14,35,26.80
2017,06,25,14,36,26.80
2017,06,25,14,37,26.80
2017,06,25,14,38,26.80
2017,06,25,14,39,26.90
2017,06,25,14,40,27.00
2017,06,25,14,41,27.10
2017,06,25,14,42,27.20
2017,06,25,14,43,27.30
2017,06,25,14,44,27.40
2017,06,25,14,45,27.40
2017,06,25,14,46,27.60
2017,06,25,14,47,27.60
2017,06,25,14,48,27.70
2017,06,25,14,49,27.60
2017,06,25,14,50,27.50
2017,06,25,14,51,27.40
2017,06,25,14,52,27.30
2017,06,25,14,53,27.10
2017,06,25,14,54,27.10
2017,06,25,14,55,27.00
2017,06,25,14,56,26.90
2017,06,25,14,57,26.90
2017,06,25,14,58,27.00
2017,06,25,14,59,26.90
2017,06,25,15,00,26.90
2017,06,25,15,01,26.80
2017,06,25,15,02,26.70
2017,06,25,15,03,26.70
2017,06,25,15,04,26.60
2017,06,25,15,05,26.60
2017,06,25,15,06,26.50
2017,06,25,15,07,26.40
2017,06,25,15,08,26.40
2017,06,25,15,09,26.40
2017,06,25,15,10,26.40
2017,06,25,15,11,26.40
2017,06,25,15,12,26.40
2017,06,25,15,13,26.50
2017,06,25,15,14,26.60
2017,06,25,15,15,26.60
2017,06,25,15,16,26.70
2017,06,25,15,17,26.80
2017,06,25,15,18,26.90
2017,06,25,15,19,26.90
2017,06,25,15,20,26.90
2017,06,25,15,21,26.90
2017,06,25,15,22,26.90
2017,06,25,15,23,26.80
2017,06,25,15,24,26.80
2017,06,25,15,25,26.70
2017,06,25,15,26,26.70
2017,06,25,15,27,26.70
2017,06,25,15,28,26.70
2017,06,25,15,29,26.70
2017,06,25,15,30,26.70
2017,06,25,15,31,26.70
2017,06,25,15,32,26.70
2017,06,25,15,33,26.70
2017,06,25,15,34,26.60
2017,06,25,15,35,26.60
2017,06,25,15,36,26.70
2017,06,25,15,37,26.70
2017,06,25,15,38,26.70
2017,06,25,15,39,26.70
2017,06,25,15,40,26.70
2017,06,25,15,41,26.70
2017,06,25,15,42,26.70
2017,06,25,15,43,26.70
2017,06,25,15,44,26.70
2017,06,25,15,45,26.70
2017,06,25,15,46,26.60
2017,06,25,15,47,26.50
2017,06,25,15,48,26.40
2017,06,25,15,49,26.40
2017,06,25,15,50,26.30
2017,06,25,15,51,26.30
2017,06,25,15,52,26.30
2017,06,25,15,53,26.30
2017,06,25,15,54,26.40
2017,06,25,15,55,26.40
2017,06,25,15,56,26.50
2017,06,25,15,57,26.60
2017,06,25,15,58,26.50
2017,06,25,15,59,26.40
2017,06,25,16,00,26.40
2017,06,25,16,01,26.30
2017,06,25,16,02,26.20
2017,06,25,16,03,26.00
2017,06,25,16,04,25.90
2017,06,25,16,05,25.80
2017,06,25,16,06,25.70
2017,06,25,16,07,25.60
2017,06,25,16,08,25.40
2017,06,25,16,09,25.30
2017,06,25,16,10,25.20
2017,06,25,16,11,25.10
2017,06,25,16,12,25.00
2017,06,25,16,13,24.90
2017,06,25,16,14,24.90
2017,06,25,16,15,24.90
2017,06,25,16,16,24.80
2017,06,25,16,17,24.80
2017,06,25,16,18,24.90
2017,06,25,16,19,25.00
2017,06,25,16,20,25.10
2017,06,25,16,21,25.20
2017,06,25,16,22,25.30
2017,06,25,16,23,25.40
2017,06,25,16,24,25.40
2017,06,25,16,25,25.40
2017,06,25,16,26,25.40
2017,06,25,16,27,25.20
2017,06,25,16,28,25.10
2017,06,25,16,29,25.00
2017,06,25,16,30,25.00
2017,06,25,16,31,24.90
2017,06,25,16,32,24.90
2017,06,25,16,33,24.90
2017,06,25,16,34,24.90
2017,06,25,16,35,24.90
2017,06,25,16,36,25.00
2017,06,25,16,37,25.00
2017,06,25,16,38,25.00
2017,06,25,16,39,24.90
2017,06,25,16,40,24.80
2017,06,25,16,41,24.80
2017,06,25,16,42,24.70
2017,06,25,16,43,24.60
2017,06,25,16,44,24.60
2017,06,25,16,45,24.60
2017,06,25,16,46,24.60
2017,06,25,16,47,24.60
2017,06,25,16,48,24.60
2017,06,25,16,49,24.60
2017,06,25,16,50,24.70
2017,06,25,16,51,24.80
2017,06,25,16,52,24.90
2017,06,25,16,53,24.90
2017,06,25,16,54,24.90
2017,06,25,16,55,25.00
2017,06,25,16,56,25.00
2017,06,25,16,57,24.90
2017,06,25,16,58,24.90
2017,06,25,16,59,24.90
2017,06,25,17,00,24.80
2017,06,25,17,01,24.70
2017,06,25,17,02,24.50
2017,06,25,17,03,24.50
2017,06,25,17,04,24.40
2017,06,25,17,05,24.30
2017,06,25,17,06,24.20
2017,06,25,17,07,24.20
2017,06,25,17,08,24.10
2017,06,25,17,09,24.10
2017,06,25,17,10,24.10
2017,06,25,17,11,24.10
2017,06,25,17,12,24.10
2017,06,25,17,13,24.00
2017,06,25,17,14,23.90
2017,06,25,17,15,23.90
2017,06,25,17,16,23.80
2017,06,25,17,17,23.70
2017,06,25,17,18,23.60
2017,06,25,17,19,23.40